Time,TemperatureF,DewpointF,PressureIn,WindDirection,WindDirectionDegrees,WindSpeedMPH,WindSpeedGustMPH,Humidity,HourlyPrecipIn,Conditions,Clouds,dailyrainin,SoftwareType,DateUTC
2013-04-29 00:09:00,49.8,42.2,27.99,West,272,8.0,15.0,75,0.00,CLR,CLR,0.00,WeatherDisplay:10.37,2013-04-29 05:09:00,
2013-04-29 00:19:00,49.5,41.2,27.99,West,272,8.0,14.0,73,0.00,CLR,CLR,0.00,WeatherDisplay:10.37,2013-04-29 05:19:00,
2013-04-29 00:29:00,49.2,40.6,27.99,West,273,8.0,18.0,72,0.00,CLR,CLR,0.00,WeatherDisplay:10.37,2013-04-29 05:29:00,
2013-04-29 00:39:00,48.9,40.9,27.99,West,279,9.0,14.0,74,0.00,CLR,CLR,0.00,WeatherDisplay:10.37,2013-04-29 05:39:00,
2013-04-29 00:49:00,48.4,39.4,27.99,West,281,7.0,14.0,71,0.00,CLR,CLR,0.00,WeatherDisplay:10.37,2013-04-29 05:49:00,
2013-04-29 00:59:00,47.9,39.3,27.99,WNW,282,6.0,12.0,72,0.00,CLR,CLR,0.00,WeatherDisplay:10.37,2013-04-29 05:59:00,
2013-04-29 01:09:00,47.4,38.5,27.99,West,279,7.0,12.0,71,0.00,CLR,CLR,0.00,WeatherDisplay:10.37,2013-04-29 06:09:00,
2013-04-29 01:19:00,47.2,37.9,27.99,West,279,8.0,14.0,70,0.00,CLR,CLR,0.00,WeatherDisplay:10.37,2013-04-29 06:19:00,
2013-04-29 01:29:00,46.9,36.9,27.99,WNW,282,9.0,17.0,68,0.00,CLR,CLR,0.00,WeatherDisplay:10.37,2013-04-29 06:29:00,
2013-04-29 01:39:00,46.3,36.0,27.99,West,279,9.0,17.0,67,0.00,CLR,CLR,0.00,WeatherDisplay:10.37,2013-04-29 06:39:00,
2013-04-29 01:49:00,45.9,34.8,27.99,West,279,9.0,21.0,65,0.00,CLR,CLR,0.00,WeatherDisplay:10.37,2013-04-29 06:49:00,
2013-04-29 01:59:00,45.3,34.6,27.98,West,279,9.0,17.0,66,0.00,CLR,CLR,0.00,WeatherDisplay:10.37,2013-04-29 06:59:00,
2013-04-29 02:09:00,44.8,32.9,27.98,West,280,9.0,16.0,63,0.00,CLR,CLR,0.00,WeatherDisplay:10.37,2013-04-29 07:09:00,
2013-04-29 02:19:00,44.5,33.0,27.99,West,279,9.0,16.0,64,0.00,CLR,CLR,0.00,WeatherDisplay:10.37,2013-04-29 07:19:00,
2013-04-29 02:29:00,44.2,32.8,27.99,West,278,8.0,16.0,64,0.00,CLR,CLR,0.00,WeatherDisplay:10.37,2013-04-29 07:29:00,
2013-04-29 02:39:00,43.9,32.1,27.99,West,279,9.0,17.0,63,0.00,CLR,CLR,0.00,WeatherDisplay:10.37,2013-04-29 07:39:00,
2013-04-29 02:49:00,43.3,32.3,27.99,West,281,8.0,16.0,65,0.00,CLR,CLR,0.00,WeatherDisplay:10.37,2013-04-29 07:49:00,
2013-04-29 02:59:00,42.8,32.2,27.99,WNW,282,6.0,16.0,66,0.00,CLR,CLR,0.00,WeatherDisplay:10.37,2013-04-29 07:59:00,
2013-04-29 03:09:00,42.6,32.0,27.99,West,280,6.0,16.0,66,0.00,CLR,CLR,0.00,WeatherDisplay:10.37,2013-04-29 08:09:00,
2013-04-29 03:19:00,42.2,31.3,27.99,West,281,8.0,13.0,65,0.00,CLR,CLR,0.00,WeatherDisplay:10.37,2013-04-29 08:19:00,
2013-04-29 03:29:00,41.9,30.6,27.99,West,281,9.0,16.0,64,0.00,CLR,CLR,0.00,WeatherDisplay:10.37,2013-04-29 08:29:00,
2013-04-29 03:39:00,41.6,30.7,27.99,West,278,7.0,15.0,65,0.00,CLR,CLR,0.00,WeatherDisplay:10.37,2013-04-29 08:39:00,
2013-04-29 03:49:00,41.4,30.9,27.99,West,274,6.0,13.0,66,0.00,CLR,CLR,0.00,WeatherDisplay:10.37,2013-04-29 08:49:00,
2013-04-29 03:58:00,41.2,30.3,27.99,West,274,7.0,12.0,65,0.00,CLR,CLR,0.00,WeatherDisplay:10.37,2013-04-29 08:58:00,
2013-04-29 04:09:00,41.3,30.8,27.99,West,271,7.0,16.0,66,0.00,CLR,CLR,0.00,WeatherDisplay:10.37,2013-04-29 09:09:00,
2013-04-29 04:19:00,41.4,30.9,27.99,West,271,6.0,13.0,66,0.00,CLR,CLR,0.00,WeatherDisplay:10.37,2013-04-29 09:19:00,
2013-04-29 04:29:00,41.3,31.2,27.99,West,271,6.0,14.0,67,0.00,CLR,CLR,0.00,WeatherDisplay:10.37,2013-04-29 09:29:00,
2013-04-29 04:39:00,41.0,31.6,28.00,West,271,5.0,12.0,69,0.00,CLR,CLR,0.00,WeatherDisplay:10.37,2013-04-29 09:39:00,
2013-04-29 04:49:00,40.7,31.7,28.00,West,271,7.0,13.0,70,0.00,CLR,CLR,0.00,WeatherDisplay:10.37,2013-04-29 09:49:00,
2013-04-29 04:59:00,40.4,30.7,28.00,West,271,8.0,14.0,68,0.00,CLR,CLR,0.00,WeatherDisplay:10.37,2013-04-29 09:59:00,
2013-04-29 05:09:00,40.2,31.2,28.00,West,273,8.0,15.0,70,0.00,CLR,CLR,0.00,WeatherDisplay:10.37,2013-04-29 10:09:00,
2013-04-29 05:19:00,39.7,31.1,28.00,West,279,6.0,13.0,71,0.00,CLR,CLR,0.00,WeatherDisplay:10.37,2013-04-29 10:19:00,
2013-04-29 05:29:00,39.2,30.6,28.00,West,278,6.0,12.0,71,0.00,CLR,CLR,0.00,WeatherDisplay:10.37,2013-04-29 10:29:00,
2013-04-29 05:39:00,38.9,30.6,28.00,West,271,7.0,10.0,72,0.00,CLR,CLR,0.00,WeatherDisplay:10.37,2013-04-29 10:39:00,
2013-04-29 05:49:00,38.5,30.6,28.00,West,273,6.0,10.0,73,0.00,CLR,CLR,0.00,WeatherDisplay:10.37,2013-04-29 10:49:00,
2013-04-29 05:58:00,38.1,30.5,28.00,West,272,6.0,9.0,74,0.00,CLR,CLR,0.00,WeatherDisplay:10.37,2013-04-29 10:58:00,
2013-04-29 06:09:00,37.7,31.5,28.00,West,272,6.0,12.0,78,0.00,CLR,CLR,0.00,WeatherDisplay:10.37,2013-04-29 11:09:00,
2013-04-29 06:19:00,37.4,31.5,28.00,West,277,5.0,9.0,79,0.00,CLR,CLR,0.00,WeatherDisplay:10.37,2013-04-29 11:19:00,
2013-04-29 06:29:00,37.0,30.8,27.99,West,280,3.0,7.0,78,0.00,CLR,CLR,0.00,WeatherDisplay:10.37,2013-04-29 11:29:00,
2013-04-29 06:39:00,36.8,31.5,28.00,WNW,282,3.0,7.0,81,0.00,CLR,CLR,0.00,WeatherDisplay:10.37,2013-04-29 11:39:00,
2013-04-29 06:49:00,36.9,31.6,28.00,West,279,3.0,9.0,81,0.00,CLR,CLR,0.00,WeatherDisplay:10.37,2013-04-29 11:49:00,
2013-04-29 06:58:00,37.3,32.0,27.99,West,281,3.0,10.0,81,0.00,CLR,CLR,0.00,WeatherDisplay:10.37,2013-04-29 11:58:00,
2013-04-29 07:08:00,37.7,32.4,27.99,WNW,284,5.0,9.0,81,0.00,CLR,CLR,0.00,WeatherDisplay:10.37,2013-04-29 12:08:00,
2013-04-29 07:18:00,38.1,32.8,27.99,WNW,287,1.0,6.0,81,0.00,CLR,CLR,0.00,WeatherDisplay:10.37,2013-04-29 12:18:00,
2013-04-29 07:28:00,39.2,33.5,27.99,WNW,288,3.0,6.0,80,0.00,CLR,CLR,0.00,WeatherDisplay:10.37,2013-04-29 12:28:00,
2013-04-29 07:38:00,40.0,34.0,27.99,WNW,286,3.0,8.0,79,0.00,CLR,CLR,0.00,WeatherDisplay:10.37,2013-04-29 12:38:00,
2013-04-29 07:49:00,40.9,34.9,27.99,WNW,284,3.0,7.0,79,0.00,CLR,CLR,0.00,WeatherDisplay:10.37,2013-04-29 12:49:00,
2013-04-29 07:58:00,41.7,35.0,27.98,WNW,284,3.0,7.0,77,0.00,CLR,CLR,0.00,WeatherDisplay:10.37,2013-04-29 12:58:00,
2013-04-29 08:08:00,42.7,35.6,27.98,WNW,288,2.0,8.0,76,0.00,CLR,CLR,0.00,WeatherDisplay:10.37,2013-04-29 13:08:00,
2013-04-29 08:18:00,43.8,35.7,27.98,WNW,285,7.0,12.0,73,0.00,CLR,CLR,0.00,WeatherDisplay:10.37,2013-04-29 13:18:00,
2013-04-29 08:29:00,44.6,36.2,27.98,WNW,283,3.0,9.0,72,0.00,CLR,CLR,0.00,WeatherDisplay:10.37,2013-04-29 13:29:00,
2013-04-29 08:38:00,45.7,36.8,27.98,WNW,287,5.0,10.0,71,0.00,CLR,CLR,0.00,WeatherDisplay:10.37,2013-04-29 13:38:00,
2013-04-29 08:48:00,46.6,37.0,27.97,WNW,287,7.0,12.0,69,0.00,CLR,CLR,0.00,WeatherDisplay:10.37,2013-04-29 13:48:00,
2013-04-29 08:58:00,46.7,36.3,27.97,WNW,292,5.0,13.0,67,0.00,CLR,CLR,0.00,WeatherDisplay:10.37,2013-04-29 13:58:00,
2013-04-29 09:08:00,47.0,37.4,27.96,WNW,291,6.0,10.0,69,0.00,CLR,CLR,0.00,WeatherDisplay:10.37,2013-04-29 14:08:00,
2013-04-29 09:18:00,47.9,38.2,27.95,WNW,292,5.0,9.0,69,0.00,CLR,CLR,0.00,WeatherDisplay:10.37,2013-04-29 14:18:00,
2013-04-29 09:28:00,48.6,38.1,27.95,WNW,291,7.0,12.0,67,0.00,CLR,CLR,0.00,WeatherDisplay:10.37,2013-04-29 14:28:00,
2013-04-29 09:38:00,49.1,37.9,27.94,WNW,288,6.0,12.0,65,0.00,CLR,CLR,0.00,WeatherDisplay:10.37,2013-04-29 14:38:00,
2013-04-29 09:48:00,50.2,38.5,27.94,WNW,283,3.0,10.0,64,0.00,CLR,CLR,0.00,WeatherDisplay:10.37,2013-04-29 14:48:00,
2013-04-29 09:58:00,51.0,40.1,27.94,WNW,291,7.0,12.0,66,0.00,CLR,CLR,0.00,WeatherDisplay:10.37,2013-04-29 14:58:00,
2013-04-29 10:08:00,52.0,39.4,27.94,WNW,293,3.0,9.0,62,0.00,CLR,CLR,0.00,WeatherDisplay:10.37,2013-04-29 15:08:00,
2013-04-29 10:18:00,52.7,40.5,27.94,West,268,2.0,12.0,63,0.00,CLR,CLR,0.00,WeatherDisplay:10.37,2013-04-29 15:18:00,
2013-04-29 10:28:00,53.5,41.6,27.93,West,270,5.0,9.0,64,0.00,CLR,CLR,0.00,WeatherDisplay:10.37,2013-04-29 15:28:00,
2013-04-29 10:38:00,54.8,42.4,27.93,West,271,5.0,12.0,63,0.00,CLR,CLR,0.00,WeatherDisplay:10.37,2013-04-29 15:38:00,
2013-04-29 10:48:00,55.1,42.3,27.92,West,274,7.0,10.0,62,0.00,CLR,CLR,0.00,WeatherDisplay:10.37,2013-04-29 15:48:00,
2013-04-29 10:58:00,55.5,43.1,27.93,West,271,6.0,12.0,63,0.00,CLR,CLR,0.00,WeatherDisplay:10.37,2013-04-29 15:58:00,
2013-04-29 11:08:00,56.5,43.2,27.92,West,270,7.0,12.0,61,0.00,CLR,CLR,0.00,WeatherDisplay:10.37,2013-04-29 16:08:00,
2013-04-29 11:18:00,57.8,44.0,27.92,WSW,240,5.0,9.0,60,0.00,CLR,CLR,0.00,WeatherDisplay:10.37,2013-04-29 16:18:00,
2013-04-29 11:28:00,59.0,44.2,27.91,WSW,250,6.0,10.0,58,0.00,CLR,CLR,0.00,WeatherDisplay:10.37,2013-04-29 16:28:00,
2013-04-29 11:38:00,58.9,44.2,27.91,WSW,256,5.0,12.0,58,0.00,CLR,CLR,0.00,WeatherDisplay:10.37,2013-04-29 16:38:00,
2013-04-29 11:48:00,59.6,44.8,27.90,WSW,248,5.0,12.0,58,0.00,CLR,CLR,0.00,WeatherDisplay:10.37,2013-04-29 16:48:00,
2013-04-29 11:58:00,60.5,44.2,27.90,WSW,245,7.0,12.0,55,0.00,CLR,CLR,0.00,WeatherDisplay:10.37,2013-04-29 16:58:00,
2013-04-29 12:08:00,61.8,44.4,27.90,SW,228,8.0,12.0,53,0.00,CLR,CLR,0.00,WeatherDisplay:10.37,2013-04-29 17:08:00,
2013-04-29 12:18:00,63.0,44.5,27.89,WSW,258,3.0,10.0,51,0.00,CLR,CLR,0.00,WeatherDisplay:10.37,2013-04-29 17:18:00,
2013-04-29 12:28:00,63.5,45.1,27.89,SW,231,5.0,12.0,51,0.00,CLR,CLR,0.00,WeatherDisplay:10.37,2013-04-29 17:28:00,
2013-04-29 12:39:00,63.6,45.1,27.88,West,266,6.0,10.0,51,0.00,CLR,CLR,0.00,WeatherDisplay:10.37,2013-04-29 17:39:00,
2013-04-29 12:48:00,63.7,44.7,27.88,West,262,8.0,12.0,50,0.00,CLR,CLR,0.00,WeatherDisplay:10.37,2013-04-29 17:48:00,
2013-04-29 12:58:00,63.7,44.2,27.87,WSW,257,6.0,12.0,49,0.00,CLR,CLR,0.00,WeatherDisplay:10.37,2013-04-29 17:58:00,
2013-04-29 13:08:00,65.0,44.8,27.87,WSW,254,6.0,12.0,48,0.00,CLR,CLR,0.00,WeatherDisplay:10.37,2013-04-29 18:08:00,
2013-04-29 13:18:00,65.9,45.6,27.86,WSW,242,6.0,13.0,48,0.00,CLR,CLR,0.00,WeatherDisplay:10.37,2013-04-29 18:18:00,
2013-04-29 13:28:00,66.0,44.0,27.86,WSW,250,6.0,15.0,45,0.00,CLR,CLR,0.00,WeatherDisplay:10.37,2013-04-29 18:28:00,
2013-04-29 13:38:00,66.3,44.3,27.86,West,277,6.0,12.0,45,0.00,CLR,CLR,0.00,WeatherDisplay:10.37,2013-04-29 18:38:00,
2013-04-29 13:48:00,66.6,44.6,27.85,West,261,5.0,13.0,45,0.00,CLR,CLR,0.00,WeatherDisplay:10.37,2013-04-29 18:48:00,
2013-04-29 13:58:00,67.4,45.3,27.84,SW,233,6.0,13.0,45,0.00,CLR,CLR,0.00,WeatherDisplay:10.37,2013-04-29 18:58:00,
2013-04-29 14:08:00,67.8,45.1,27.84,WSW,247,8.0,13.0,44,0.00,CLR,CLR,0.00,WeatherDisplay:10.37,2013-04-29 19:08:00,
2013-04-29 14:18:00,68.3,46.7,27.83,WSW,239,9.0,16.0,46,0.00,CLR,CLR,0.00,WeatherDisplay:10.37,2013-04-29 19:18:00,
2013-04-29 14:28:00,68.3,46.8,27.83,SW,231,8.0,14.0,46,0.00,CLR,CLR,0.00,WeatherDisplay:10.37,2013-04-29 19:28:00,
2013-04-29 14:38:00,68.7,47.7,27.83,SW,235,8.0,16.0,47,0.00,CLR,CLR,0.00,WeatherDisplay:10.37,2013-04-29 19:38:00,
2013-04-29 14:48:00,69.9,47.6,27.83,SW,236,8.0,16.0,45,0.00,CLR,CLR,0.00,WeatherDisplay:10.37,2013-04-29 19:48:00,
2013-04-29 14:58:00,69.8,47.5,27.83,SW,232,12.0,16.0,45,0.00,CLR,CLR,0.00,WeatherDisplay:10.37,2013-04-29 19:58:00,
2013-04-29 15:08:00,69.3,47.6,27.82,SW,233,5.0,13.0,46,0.00,CLR,CLR,0.00,WeatherDisplay:10.37,2013-04-29 20:08:00,
2013-04-29 15:19:00,69.7,49.2,27.81,SW,236,12.0,17.0,48,0.00,CLR,CLR,0.00,WeatherDisplay:10.37,2013-04-29 20:19:00,
2013-04-29 15:29:00,70.4,49.2,27.81,SW,232,8.0,14.0,47,0.00,CLR,CLR,0.00,WeatherDisplay:10.37,2013-04-29 20:29:00,
2013-04-29 15:39:00,70.8,49.6,27.80,WSW,237,9.0,13.0,47,0.00,CLR,CLR,0.00,WeatherDisplay:10.37,2013-04-29 20:39:00,
2013-04-29 15:49:00,71.7,49.2,27.80,WSW,237,9.0,15.0,45,0.00,CLR,CLR,0.00,WeatherDisplay:10.37,2013-04-29 20:49:00,
2013-04-29 15:58:00,72.3,49.2,27.78,WSW,241,12.0,17.0,44,0.00,CLR,CLR,0.00,WeatherDisplay:10.37,2013-04-29 20:58:00,
2013-04-29 16:09:00,72.2,49.1,27.78,WSW,238,5.0,20.0,44,0.00,CLR,CLR,0.00,WeatherDisplay:10.37,2013-04-29 21:09:00,
2013-04-29 16:19:00,71.7,49.8,27.77,WSW,239,9.0,23.0,46,0.00,CLR,CLR,0.00,WeatherDisplay:10.37,2013-04-29 21:19:00,
2013-04-29 16:29:00,71.8,49.3,27.77,WSW,239,9.0,17.0,45,0.00,CLR,CLR,0.00,WeatherDisplay:10.37,2013-04-29 21:29:00,
2013-04-29 16:39:00,72.6,50.1,27.76,WSW,240,8.0,15.0,45,0.00,CLR,CLR,0.00,WeatherDisplay:10.37,2013-04-29 21:39:00,
2013-04-29 16:49:00,73.6,49.1,27.76,WSW,244,7.0,15.0,42,0.00,CLR,CLR,0.00,WeatherDisplay:10.37,2013-04-29 21:49:00,
2013-04-29 16:58:00,74.3,49.1,27.75,SW,232,9.0,16.0,41,0.00,CLR,CLR,0.00,WeatherDisplay:10.37,2013-04-29 21:58:00,
2013-04-29 17:09:00,74.2,49.0,27.74,SW,234,8.0,15.0,41,0.00,CLR,CLR,0.00,WeatherDisplay:10.37,2013-04-29 22:09:00,
2013-04-29 17:18:00,73.7,48.5,27.74,SW,234,5.0,12.0,41,0.00,CLR,CLR,0.00,WeatherDisplay:10.37,2013-04-29 22:18:00,
2013-04-29 17:28:00,73.9,48.7,27.74,SW,233,9.0,16.0,41,0.00,CLR,CLR,0.00,WeatherDisplay:10.37,2013-04-29 22:28:00,
2013-04-29 17:38:00,74.6,48.7,27.73,SW,236,9.0,15.0,40,0.00,CLR,CLR,0.00,WeatherDisplay:10.37,2013-04-29 22:38:00,
2013-04-29 17:48:00,74.9,50.2,27.73,WSW,237,7.0,14.0,42,0.00,CLR,CLR,0.00,WeatherDisplay:10.37,2013-04-29 22:48:00,
2013-04-29 17:58:00,74.7,50.1,27.73,SW,234,12.0,14.0,42,0.00,CLR,CLR,0.00,WeatherDisplay:10.37,2013-04-29 22:58:00,
2013-04-29 18:08:00,74.2,49.6,27.72,SW,236,8.0,16.0,42,0.00,CLR,CLR,0.00,WeatherDisplay:10.37,2013-04-29 23:08:00,
2013-04-29 18:18:00,74.2,49.0,27.72,WSW,237,5.0,12.0,41,0.00,CLR,CLR,0.00,WeatherDisplay:10.37,2013-04-29 23:18:00,
2013-04-29 18:28:00,73.3,48.9,27.72,WSW,238,5.0,10.0,42,0.00,CLR,CLR,0.00,WeatherDisplay:10.37,2013-04-29 23:28:00,
2013-04-29 18:38:00,72.7,48.9,27.72,WSW,237,5.0,12.0,43,0.00,CLR,CLR,0.00,WeatherDisplay:10.37,2013-04-29 23:38:00,
2013-04-29 18:48:00,72.6,49.5,27.72,WSW,237,7.0,10.0,44,0.00,CLR,CLR,0.00,WeatherDisplay:10.37,2013-04-29 23:48:00,
2013-04-29 18:58:00,72.1,50.2,27.72,SW,236,6.0,9.0,46,0.00,CLR,CLR,0.00,WeatherDisplay:10.37,2013-04-29 23:58:00,
2013-04-29 19:08:00,71.3,50.6,27.71,SW,235,5.0,6.0,48,0.00,CLR,CLR,0.00,WeatherDisplay:10.37,2013-04-30 00:08:00,
2013-04-29 19:18:00,70.5,51.0,27.71,WSW,237,2.0,7.0,50,0.00,CLR,CLR,0.00,WeatherDisplay:10.37,2013-04-30 00:18:00,
2013-04-29 19:28:00,69.9,51.5,27.71,WSW,238,3.0,8.0,52,0.00,CLR,CLR,0.00,WeatherDisplay:10.37,2013-04-30 00:28:00,
2013-04-29 19:38:00,69.4,51.5,27.70,WSW,237,3.0,9.0,53,0.00,CLR,CLR,0.00,WeatherDisplay:10.37,2013-04-30 00:38:00,
2013-04-29 19:48:00,68.7,51.4,27.70,WSW,237,5.0,8.0,54,0.00,CLR,CLR,0.00,WeatherDisplay:10.37,2013-04-30 00:48:00,
2013-04-29 19:58:00,68.0,51.7,27.70,WSW,237,3.0,7.0,56,0.00,CLR,CLR,0.00,WeatherDisplay:10.37,2013-04-30 00:58:00,
2013-04-29 20:08:00,67.2,51.5,27.69,SW,235,3.0,6.0,57,0.00,CLR,CLR,0.00,WeatherDisplay:10.37,2013-04-30 01:08:00,
2013-04-29 20:18:00,66.6,51.4,27.69,SW,235,5.0,7.0,58,0.00,CLR,CLR,0.00,WeatherDisplay:10.37,2013-04-30 01:18:00,
2013-04-29 20:28:00,66.0,51.7,27.69,SW,236,3.0,6.0,60,0.00,CLR,CLR,0.00,WeatherDisplay:10.37,2013-04-30 01:28:00,
2013-04-29 20:38:00,65.2,51.9,27.69,WSW,238,3.0,6.0,62,0.00,CLR,CLR,0.00,WeatherDisplay:10.37,2013-04-30 01:38:00,
2013-04-29 20:49:00,64.4,51.6,27.68,SW,235,3.0,8.0,63,0.00,CLR,CLR,0.00,WeatherDisplay:10.37,2013-04-30 01:49:00,
2013-04-29 20:58:00,64.2,51.8,27.68,SW,236,3.0,7.0,64,0.00,CLR,CLR,0.00,WeatherDisplay:10.37,2013-04-30 01:58:00,
2013-04-29 21:09:00,63.6,51.6,27.68,SW,235,3.0,7.0,65,0.00,CLR,CLR,0.00,WeatherDisplay:10.37,2013-04-30 02:09:00,
2013-04-29 21:19:00,63.1,51.6,27.68,WSW,237,3.0,6.0,66,0.00,CLR,CLR,0.00,WeatherDisplay:10.37,2013-04-30 02:19:00,
2013-04-29 21:29:00,63.1,51.6,27.68,WSW,237,3.0,9.0,66,0.00,CLR,CLR,0.00,WeatherDisplay:10.37,2013-04-30 02:29:00,
2013-04-29 21:39:00,62.7,51.6,27.67,WSW,240,3.0,8.0,67,0.00,CLR,CLR,0.00,WeatherDisplay:10.37,2013-04-30 02:39:00,
2013-04-29 22:09:00,61.2,51.3,27.66,SW,230,5.0,8.0,70,0.00,CLR,CLR,0.00,WeatherDisplay:10.37,2013-04-30 03:09:00,
2013-04-29 22:19:00,60.5,51.4,27.65,SW,231,5.0,10.0,72,0.00,CLR,CLR,0.00,WeatherDisplay:10.37,2013-04-30 03:19:00,
2013-04-29 22:29:00,60.0,52.1,27.65,SW,233,6.0,10.0,75,0.00,CLR,CLR,0.00,WeatherDisplay:10.37,2013-04-30 03:29:00,
2013-04-29 22:39:00,59.8,52.2,27.64,SW,231,5.0,13.0,76,0.00,CLR,CLR,0.00,WeatherDisplay:10.37,2013-04-30 03:39:00,
2013-04-29 22:49:00,59.5,51.6,27.64,SW,232,6.0,12.0,75,0.00,CLR,CLR,0.00,WeatherDisplay:10.37,2013-04-30 03:49:00,
2013-04-29 22:58:00,59.4,52.2,27.64,SW,231,8.0,12.0,77,0.00,CLR,CLR,0.00,WeatherDisplay:10.37,2013-04-30 03:58:00,
2013-04-29 23:09:00,59.4,51.5,27.63,SW,232,6.0,12.0,75,0.00,CLR,CLR,0.00,WeatherDisplay:10.37,2013-04-30 04:09:00,
2013-04-29 23:19:00,59.4,52.2,27.63,SW,234,10.0,15.0,77,0.00,CLR,CLR,0.00,WeatherDisplay:10.37,2013-04-30 04:19:00,
2013-04-29 23:29:00,59.8,52.5,27.62,SW,233,13.0,20.0,77,0.00,CLR,CLR,0.00,WeatherDisplay:10.37,2013-04-30 04:29:00,
2013-04-29 23:39:00,60.3,53.1,27.61,SW,235,8.0,15.0,77,0.00,CLR,CLR,0.00,WeatherDisplay:10.37,2013-04-30 04:39:00,
2013-04-29 23:49:00,60.3,53.4,27.61,SW,234,8.0,14.0,78,0.00,CLR,CLR,0.00,WeatherDisplay:10.37,2013-04-30 04:49:00,
2013-04-29 23:58:00,60.1,53.2,27.60,SW,235,10.0,16.0,78,0.00,CLR,CLR,0.00,WeatherDisplay:10.37,2013-04-30 04:58:00,